TimeAEST,TemperatureF,Dew PointF,Humidity,Sea Level PressureIn,VisibilityMPH,Wind Direction,Wind SpeedMPH,Gust SpeedMPH,PrecipitationIn,Events,Conditions,WindDirDegrees,DateUTC
12:00 AM,77,69,70,29.80,,NNE,6.9,,,,,30,2013-12-10 14:00:00
12:00 AM,77.0,69.8,78,29.80,6.2,NNE,6.9,-,N/A,,Unknown,30,2013-12-10 14:00:00
12:30 AM,77.0,68.0,74,29.77,6.2,NNE,5.8,-,N/A,,Unknown,30,2013-12-10 14:30:00
1:00 AM,76,68,71,29.78,,NNE,5.8,,,,,30,2013-12-10 15:00:00
1:00 AM,77.0,68.0,74,29.77,6.2,NNE,5.8,-,N/A,,Unknown,30,2013-12-10 15:00:00
1:30 AM,75.2,68.0,78,29.74,6.2,NNE,6.9,-,N/A,,Unknown,30,2013-12-10 15:30:00
2:00 AM,77.0,69.8,78,29.74,6.2,NNE,6.9,-,N/A,,Unknown,20,2013-12-10 16:00:00
2:30 AM,75.2,68.0,78,29.74,6.2,NNE,5.8,-,N/A,,Unknown,20,2013-12-10 16:30:00
3:00 AM,76,69,72,29.75,,NNE,6.9,,,,,30,2013-12-10 17:00:00
3:00 AM,75.2,68.0,78,29.74,6.2,NNE,6.9,-,N/A,,Unknown,30,2013-12-10 17:00:00
3:30 AM,77.0,68.0,74,29.74,6.2,NNE,6.9,-,N/A,,Unknown,30,2013-12-10 17:30:00
4:00 AM,76,68,71,29.76,,NNE,6.9,,,,,20,2013-12-10 18:00:00
4:00 AM,77.0,68.0,74,29.74,6.2,NNE,6.9,-,N/A,,Scattered Clouds,20,2013-12-10 18:00:00
4:30 AM,75.2,68.0,78,29.74,6.2,NNE,6.9,-,N/A,,Unknown,30,2013-12-10 18:30:00
5:00 AM,75.2,68.0,78,29.74,6.2,NNE,6.9,-,N/A,,Unknown,30,2013-12-10 19:00:00
5:30 AM,77.0,68.0,74,29.77,6.2,NNE,6.9,-,N/A,,Unknown,20,2013-12-10 19:30:00
6:00 AM,77,68,68,29.79,22,North,5.8,,,,Haze,10,2013-12-10 20:00:00
6:00 AM,77.0,68.0,74,29.77,6.2,North,5.8,-,N/A,,Mostly Cloudy,10,2013-12-10 20:00:00
6:30 AM,78.8,68.0,69,29.80,6.2,North,5.8,-,N/A,,Mostly Cloudy,10,2013-12-10 20:30:00
7:00 AM,80,67,56,29.83,,North,8.1,,,,,10,2013-12-10 21:00:00
7:00 AM,80.6,66.2,61,29.80,6.2,North,8.1,-,N/A,,Mostly Cloudy,10,2013-12-10 21:00:00
7:30 AM,82.4,66.2,58,29.83,6.2,NE,9.2,-,N/A,,Scattered Clouds,40,2013-12-10 21:30:00
8:00 AM,82.4,66.2,58,29.83,6.2,NE,10.4,-,N/A,,Partly Cloudy,40,2013-12-10 22:00:00
8:30 AM,84.2,68.0,58,29.83,6.2,NE,10.4,-,N/A,,Scattered Clouds,50,2013-12-10 22:30:00
9:00 AM,82,67,50,29.84,22,North,11.5,,,,Haze,10,2013-12-10 23:00:00
9:00 AM,82.4,66.2,58,29.83,6.2,North,11.5,-,N/A,,Scattered Clouds,10,2013-12-10 23:00:00
9:30 AM,84.2,66.2,55,29.83,6.2,NE,11.5,-,N/A,,Scattered Clouds,40,2013-12-10 23:30:00
10:00 AM,85,67,45,29.84,,NE,12.7,,,,,40,2013-12-11 00:00:00
10:00 AM,86.0,66.2,51,29.83,6.2,NE,12.7,-,N/A,,Scattered Clouds,40,2013-12-11 00:00:00
10:30 AM,86.0,66.2,51,29.83,6.2,NE,15.0,-,N/A,,Scattered Clouds,50,2013-12-11 00:30:00
11:00 AM,86.0,66.2,51,29.83,6.2,NE,12.7,-,N/A,,Scattered Clouds,50,2013-12-11 01:00:00
11:30 AM,84.2,66.2,55,29.80,6.2,ENE,13.8,-,N/A,,Partly Cloudy,60,2013-12-11 01:30:00
12:00 PM,87,64,37,29.80,22,North,12.7,,,,Haze,10,2013-12-11 02:00:00
12:00 PM,86.0,64.4,48,29.80,6.2,North,12.7,-,N/A,,Scattered Clouds,10,2013-12-11 02:00:00
12:30 PM,86.0,64.4,48,29.77,6.2,NNE,10.4,-,N/A,,Partly Cloudy,20,2013-12-11 02:30:00
1:00 PM,85,65,41,29.79,,NE,8.1,,,,,50,2013-12-11 03:00:00
1:00 PM,86.0,64.4,48,29.77,6.2,NE,8.1,-,N/A,,Partly Cloudy,50,2013-12-11 03:00:00
1:30 PM,87.8,64.4,46,29.77,6.2,North,9.2,-,N/A,,Partly Cloudy,360,2013-12-11 03:30:00
2:00 PM,86.0,66.2,51,29.74,6.2,NNE,12.7,-,N/A,,Partly Cloudy,30,2013-12-11 04:00:00
2:30 PM,86.0,64.4,48,29.74,6.2,North,10.4,-,N/A,,Partly Cloudy,360,2013-12-11 04:30:00
3:00 PM,86,64,38,29.73,22,NNE,10.4,,,,Haze,20,2013-12-11 05:00:00
3:00 PM,86.0,64.4,48,29.71,6.2,NNE,10.4,-,N/A,,Partly Cloudy,20,2013-12-11 05:00:00
3:30 PM,87.8,60.8,40,29.71,6.2,NE,11.5,-,N/A,,Partly Cloudy,50,2013-12-11 05:30:00
4:00 PM,87,63,34,29.73,,NNE,9.2,,,,,30,2013-12-11 06:00:00
4:00 PM,87.8,62.6,43,29.71,6.2,NNE,9.2,-,N/A,,Partly Cloudy,30,2013-12-11 06:00:00
4:30 PM,86.0,60.8,43,29.71,6.2,NE,13.8,-,N/A,,Partly Cloudy,50,2013-12-11 06:30:00
5:00 PM,86.0,66.2,51,29.71,6.2,ENE,15.0,-,N/A,,Partly Cloudy,70,2013-12-11 07:00:00
5:30 PM,84.2,66.2,55,29.71,6.2,ENE,13.8,-,N/A,,Partly Cloudy,60,2013-12-11 07:30:00
6:00 PM,82,68,53,29.73,19,ENE,11.5,,,,Haze,70,2013-12-11 08:00:00
6:00 PM,82.4,68.0,62,29.71,6.2,ENE,11.5,-,N/A,,Partly Cloudy,70,2013-12-11 08:00:00
6:30 PM,80.6,68.0,65,29.71,6.2,NE,9.2,-,N/A,,Scattered Clouds,40,2013-12-11 08:30:00
7:00 PM,80,67,56,29.74,,NE,10.4,,,,,40,2013-12-11 09:00:00
7:00 PM,80.6,68.0,65,29.71,6.2,NE,10.4,-,N/A,,Scattered Clouds,40,2013-12-11 09:00:00
7:30 PM,78.8,68.0,69,29.74,6.2,North,4.6,-,N/A,,Scattered Clouds,10,2013-12-11 09:30:00
8:00 PM,78.8,68.0,69,29.74,6.2,Calm,Calm,-,N/A,,Mostly Cloudy,0,2013-12-11 10:00:00
8:30 PM,78.8,68.0,69,29.74,6.2,North,5.8,-,N/A,,Mostly Cloudy,10,2013-12-11 10:30:00
9:00 PM,78,68,64,29.76,19,NNE,5.8,,,,Haze,20,2013-12-11 11:00:00
9:00 PM,78.8,68.0,69,29.74,6.2,NNE,5.8,-,N/A,,Mostly Cloudy,20,2013-12-11 11:00:00
9:30 PM,78.8,68.0,69,29.74,6.2,NNE,6.9,-,N/A,,Mostly Cloudy,20,2013-12-11 11:30:00
10:00 PM,79,67,60,29.78,,NNE,6.9,,,,,20,2013-12-11 12:00:00
10:00 PM,78.8,68.0,69,29.77,6.2,NNE,6.9,-,N/A,,Mostly Cloudy,20,2013-12-11 12:00:00
10:30 PM,78.8,68.0,69,29.77,6.2,North,6.9,-,N/A,,Mostly Cloudy,10,2013-12-11 12:30:00
11:00 PM,78.8,68.0,69,29.77,6.2,North,5.8,-,N/A,,Unknown,10,2013-12-11 13:00:00
11:30 PM,78.8,68.0,69,29.77,6.2,North,5.8,-,N/A,,Unknown,10,2013-12-11 13:30:00